千帆星座-125(QIANFAN-125)

导读

QIANFAN-125(NORAD编号68652)是中国千帆星座的组网卫星之一,该卫星于2026年4月7日在海南商业航天发射场,由长征八号火箭发射升空,此次任务共将包括QIANFAN-125在内的18颗千帆卫星送入预定轨道。 千帆星座是中国两大低轨卫星互联网星座之一,对标星链计划,目标部署数千颗卫星(远期规划超万颗),旨在为全球提供高速、安全、可靠的太空宽带互联网服务,本次发射完成后,千帆星座已成功组网卫星数量达到126颗,是其今年首次组网发射任务。

基本信息
目录编号:
68652
目录名称:
QIANFAN-125
国际标识:
2026-075S
轨道中心:
EARTH
卫星名称:
千帆星座-125
卫星全名:
千帆星座-125(QIANFAN-125)
卫星状态:
在轨 (已飞行157 天)
发射日期:
2026-04-07 UTC
国别 :
中国 (CN)
星等 :
--
该卫星已列入 空间交会检测服务 Space Conjunction Data Service (SCDS) ,当前飞行风险评估等级: 无高风险
轨道信息
数据来源 国际轨道数据 AOE轨道数据
星历时间 2026-09-11T14:16:01+0800
8小时前
查看轨道信息
2026-09-10T23:00:00+0800
23小时前
查看轨道信息
半长轴 7446.634km 7446.636km
偏心率 0.0002295 0.0002262
轨道倾角 88.988° 88.988°
近地点辐角 100.231° 99.687°
升交点赤经 312.210° 312.273°
平近点角 259.910° 48.392°
近地点 1066.787km 1066.814km
远地点 1070.207km 1070.184km
周期 106.586分钟 106.586分钟
每日圈数 13.510231 13.510225
详细信息
卫星平台:
125
覆盖范围:
全球
运营商:
上海垣信卫星科技有限公司
运营商所在国:
中国
使用方式:
暂无
卫星简介
千帆星座,也被称为“G60星链”计划,是中国版“星链”的重要组成部分,旨在打造一个由1.4万多颗低轨宽频多媒体卫星构成的庞大星座。千帆星座计划由上海垣信卫星科技有限公司负责实施,于2023年启动建设。该项目是我国第二个低轨卫星大星座,旨在通过构建庞大的卫星网络,为全球用户提供高质量的通信和宽带互联网服务。
2D轨道图
3D轨道图
轨道高度分析图
轨道倾角分析图
轨道综合分析图
查看轨道综合分析图
与全量物体交会距离演化趋势
与全量物体交会风险概率演化趋势